FW3143 Weather Reports


time (UTC)temp
C
wind
direction
speed
KPH
gust
KPH
rain 1hr
cm
rain 24hr
cm
rain mn
cm
humidity
%
barometer
mb
20260502130508 11 172 8.0 12.9 0.00 0.00 0.00 88 1013.8
20260502123508 11 335 6.4 11.3 0.00 0.00 0.00 89 1013.5
20260502123020 10 171 8.0 14.5 0.00 0.00 0.00 89 1013.5
20260502122507 10 181 8.0 14.5 0.00 0.00 0.00 88 1013.5
20260502122010 10 182 8.0 14.5 0.00 0.00 0.00 88 1013.6
20260502121537 10 182 8.0 14.5 0.00 0.00 0.00 88 1013.7
20260502121007 10 335 6.4 16.1 0.00 0.00 0.00 88 1013.7
20260502120508 10 335 4.8 16.1 0.00 0.00 0.00 89 1013.6
20260502115514 10 174 9.7 14.5 0.00 0.00 0.00 88 1013.7
20260502115006 10 163 9.7 16.1 0.00 0.00 0.00 88 1013.7
20260502114523 10 157 11.3 16.1 0.00 0.00 0.00 88 1013.7
20260502114010 10 154 11.3 16.1 0.00 0.00 0.00 88 1013.6
20260502113508 10 166 9.7 12.9 0.00 0.00 0.00 88 1013.5
20260502113028 10 157 8.0 12.9 0.00 0.00 0.00 88 1013.3
20260502112509 10 166 8.0 12.9 0.00 0.00 0.00 88 1013.4
20260502112011 10 140 6.4 14.5 0.00 0.00 0.00 88 1013.0
20260502111532 10 148 11.3 14.5 0.00 0.00 0.00 88 1013.3
20260502111007 10 335 6.4 12.9 0.00 0.00 0.00 88 1013.0
20260502110507 10 335 6.4 9.7 0.00 0.00 0.00 88 1013.1
20260502110033 10 157 4.8 14.5 0.00 0.00 0.00 88 1013.1
20260502105506 10 158 8.0 14.5 0.00 0.00 0.00 87 1013.3
20260502105008 10 177 6.4 16.1 0.00 0.00 0.00 87 1013.2
20260502104516 10 179 6.4 16.1 0.00 0.00 0.00 88 1013.3
20260502104004 10 186 8.0 17.7 0.00 0.00 0.00 88 1013.4
20260502103504 10 182 11.3 17.7 0.00 0.00 0.00 88 1013.5
20260502103023 10 183 9.7 14.5 0.00 0.00 0.00 88 1013.3
20260502102508 10 184 8.0 14.5 0.00 0.00 0.00 88 1013.2
20260502102009 10 335 6.4 17.7 0.00 0.00 0.00 88 1013.1
20260502101529 10 169 9.7 20.9 0.00 0.00 0.00 88 1013.1
20260502101003 10 158 12.9 20.9 0.00 0.00 0.00 88 1013.2
20260502100503 10 165 12.9 22.5 0.00 0.00 0.00 88 1013.3
20260502091522 10 165 16.1 24.1 0.00 0.00 0.00 87 1013.1
20260502091008 10 335 17.7 24.1 0.00 0.00 0.00 87 1013.1
20260502090506 10 148 17.7 24.1 0.00 0.00 0.00 87 1013.0
20260502071505 10 161 17.7 29.0 0.00 0.00 0.00 86 1013.6
20260502071004 10 170 19.3 29.0 0.00 0.00 0.00 85 1013.5
20260502070503 10 171 14.5 29.0 0.00 0.00 0.00 85 1013.5
20260502070010 10 162 16.1 30.6 0.00 0.00 0.00 85 1013.5
20260502065502 10 168 19.3 29.0 0.00 0.00 0.00 85 1013.4
20260502065004 10 175 17.7 32.2 0.00 0.00 0.00 85 1013.4
20260502064505 10 176 16.1 32.2 0.00 0.00 0.00 85 1013.5
20260502064003 10 173 19.3 32.2 0.00 0.00 0.00 85 1013.4
20260502063503 10 169 22.5 37.0 0.00 0.00 0.00 85 1013.4
20260502063006 10 163 25.7 37.0 0.00 0.00 0.00 85 1013.4
20260502062503 10 157 19.3 29.0 0.00 0.00 0.00 85 1013.6
20260502062002 10 173 12.9 20.9 0.00 0.00 0.00 84 1013.8
20260502061504 10 193 6.4 25.7 0.00 0.00 0.00 84 1013.8
20260502061004 10 202 9.7 33.8 0.00 0.00 0.00 84 1013.9
20260502060503 10 184 19.3 33.8 0.00 0.00 0.00 84 1013.7
20260502060006 10 165 17.7 32.2 0.00 0.00 0.00 84 1013.7
20260502055503 10 177 14.5 30.6 0.00 0.00 0.00 84 1013.8
20260502055003 10 165 16.1 30.6 0.00 0.00 0.00 84 1013.8
20260502054506 10 171 19.3 27.4 0.00 0.00 0.00 84 1013.6
20260502054003 10 335 17.7 29.0 0.00 0.00 0.00 84 1013.5
20260502053503 10 335 17.7 29.0 0.00 0.00 0.00 84 1013.3
20260502053005 10 159 19.3 29.0 0.00 0.00 0.00 84 1013.4
20260502052506 10 152 17.7 32.2 0.00 0.00 0.00 84 1013.4
20260502052003 10 159 22.5 32.2 0.00 0.00 0.00 84 1013.5
20260502051504 10 152 17.7 33.8 0.00 0.00 0.00 84 1013.4
20260502051002 11 152 20.9 33.8 0.00 0.00 0.00 84 1013.4
20260502050506 11 335 24.1 33.8 0.00 0.00 0.00 84 1013.5
20260502050009 11 146 24.1 37.0 0.00 0.00 0.00 84 1013.4
20260502045504 11 335 25.7 37.0 0.00 0.00 0.00 84 1013.5
20260502045003 11 335 29.0 40.2 0.00 0.00 0.00 83 1013.6
20260502044510 11 157 29.0 40.2 0.00 0.00 0.00 83 1013.6
20260502044003 11 146 25.7 33.8 0.00 0.00 0.00 83 1013.6
20260502043503 11 150 24.1 33.8 0.00 0.00 0.00 82 1013.5
20260502043008 11 157 22.5 33.8 0.00 0.00 0.00 82 1013.5
20260502042502 11 160 20.9 40.2 0.00 0.00 0.00 82 1013.5
20260502042006 11 148 25.7 41.8 0.00 0.00 0.00 81 1013.6
20260502041508 11 335 27.4 41.8 0.00 0.00 0.00 81 1013.6
20260502041003 11 155 29.0 43.5 0.00 0.00 0.00 80 1013.6
20260502040504 11 151 32.2 46.7 0.00 0.00 0.00 79 1013.6
20260502040011 11 335 30.6 46.7 0.00 0.00 0.00 79 1013.6
20260502035503 11 335 29.0 40.2 0.00 0.00 0.00 79 1013.6
20260502035004 11 335 24.1 40.2 0.00 0.00 0.00 80 1013.6
20260502034512 11 130 29.0 38.6 0.00 0.00 0.00 80 1013.5
20260502034004 11 335 25.7 38.6 0.00 0.00 0.00 80 1013.5
20260502033503 11 125 22.5 38.6 0.00 0.00 0.00 80 1013.5
20260502033010 11 335 29.0 38.6 0.00 0.00 0.00 81 1013.6
20260502032503 11 148 27.4 38.6 0.00 0.00 0.00 81 1013.6
20260502032003 11 335 27.4 41.8 0.00 0.00 0.00 81 1013.6
20260502031513 11 335 30.6 43.5 0.00 0.00 0.00 81 1013.7
20260502031002 11 153 30.6 43.5 0.00 0.00 0.00 81 1013.7
20260502030504 11 335 25.7 40.2 0.00 0.00 0.00 81 1013.9
20260502030014 11 335 27.4 40.2 0.00 0.00 0.00 82 1013.9
20260502025503 10 335 29.0 45.1 0.00 0.00 0.00 82 1014.0
20260502025003 10 335 29.0 45.1 0.00 0.00 0.00 82 1014.0
20260502024513 10 149 27.4 38.6 0.00 0.00 0.00 82 1013.9
20260502024005 10 335 29.0 41.8 0.00 0.00 0.00 82 1013.8
20260502023504 10 335 29.0 41.8 0.00 0.00 0.00 82 1013.7
20260502023014 10 125 29.0 41.8 0.00 0.00 0.00 81 1013.7
20260502022504 10 125 27.4 41.8 0.00 0.00 0.00 81 1013.8
20260502022009 10 335 30.6 40.2 0.00 0.00 0.00 81 1013.9
20260502021517 10 335 30.6 41.8 0.00 0.00 0.00 81 1013.9
20260502021006 10 335 29.0 41.8 0.00 0.00 0.00 80 1013.8
20260502020507 10 335 32.2 40.2 0.00 0.00 0.00 80 1013.8
20260502020014 11 335 30.6 40.2 0.00 0.00 0.00 80 1013.8
20260502015503 11 134 30.6 40.2 0.00 0.00 0.00 79 1013.8
20260502015004 11 335 30.6 40.2 0.00 0.00 0.00 79 1013.8
20260502014526 11 335 30.6 49.9 0.00 0.00 0.00 79 1013.8
20260502014003 11 335 29.0 49.9 0.00 0.00 0.00 79 1013.8
20260502013507 11 335 32.2 41.8 0.00 0.00 0.00 79 1013.7
20260502013014 11 335 30.6 43.5 0.00 0.00 0.00 79 1013.7
20260502012506 11 126 29.0 43.5 0.00 0.00 0.00 79 1013.6
20260502012011 11 335 29.0 40.2 0.00 0.00 0.00 79 1013.6
20260502011521 11 335 29.0 40.2 0.00 0.00 0.00 79 1013.6
20260502011003 11 335 27.4 40.2 0.00 0.00 0.00 79 1013.5
20260502010505 11 124 29.0 40.2 0.00 0.00 0.00 79 1013.4
20260502010012 11 335 29.0 41.8 0.00 0.00 0.00 79 1013.4
20260502005504 11 335 30.6 41.8 0.00 0.00 0.00 78 1013.4
20260502005004 11 335 29.0 41.8 0.00 0.00 0.00 79 1013.2
20260502004531 11 135 30.6 40.2 0.00 0.00 0.00 78 1013.3
20260502004005 11 134 27.4 37.0 0.00 0.00 0.00 79 1013.4
20260502003503 11 335 27.4 37.0 0.00 0.00 0.00 79 1013.4
20260502003007 11 335 24.1 32.2 0.00 0.00 0.00 80 1013.3
20260502002502 11 335 24.1 37.0 0.00 0.00 0.00 79 1013.2
20260502002004 11 335 27.4 37.0 0.00 0.00 0.00 79 1013.1
20260502001510 11 124 27.4 35.4 0.00 0.00 0.00 79 1013.1
20260502001005 11 335 25.7 37.0 0.00 0.00 0.00 79 1013.1
20260502000503 11 128 27.4 37.0 0.00 0.00 0.00 79 1013.0
20260502000019 11 128 24.1 35.4 0.00 0.00 0.00 79 1013.0
20260501235505 11 125 25.7 35.4 0.00 0.00 0.00 78 1013.0
20260501235008 11 335 27.4 40.2 0.00 0.00 0.00 78 1013.0
20260501234504 11 120 27.4 40.2 0.00 0.00 0.00 78 1012.9
20260501234004 11 335 30.6 38.6 0.00 0.00 0.00 77 1012.9
20260501233502 11 152 27.4 37.0 0.00 0.00 0.00 78 1012.9
20260501233011 11 140 27.4 37.0 0.00 0.00 0.00 78 1012.8
20260501232508 11 124 27.4 37.0 0.00 0.00 0.00 77 1012.6
20260501232008 11 130 27.4 37.0 0.00 0.00 0.00 77 1012.6
20260501231535 11 132 25.7 35.4 0.00 0.00 0.00 77 1012.4
20260501231007 11 335 25.7 38.6 0.00 0.00 0.00 77 1012.5
20260501230508 11 130 29.0 38.6 0.00 0.00 0.00 77 1012.5
20260501230008 11 335 29.0 35.4 0.00 0.00 0.00 76 1012.5
20260501225504 11 125 25.7 33.8 0.00 0.00 0.00 76 1012.4
20260501225003 11 335 25.7 33.8 0.00 0.00 0.00 76 1012.4
20260501224515 11 117 25.7 37.0 0.00 0.00 0.00 76 1012.4
20260501224007 11 335 27.4 37.0 0.00 0.00 0.00 76 1012.4
20260501223506 11 335 25.7 35.4 0.00 0.00 0.00 76 1012.5
20260501223021 11 335 27.4 35.4 0.00 0.00 0.00 75 1012.6
20260501222511 11 335 25.7 35.4 0.00 0.00 0.00 76 1012.5
20260501222004 11 335 27.4 38.6 0.00 0.00 0.00 75 1012.5
20260501221509 11 335 27.4 38.6 0.00 0.00 0.00 75 1012.5
20260501221004 11 131 30.6 38.6 0.00 0.00 0.00 74 1012.5
20260501220504 11 123 29.0 38.6 0.00 0.00 0.00 74 1012.5
20260501220019 12 335 29.0 38.6 0.00 0.00 0.00 74 1012.6
20260501215508 12 129 30.6 38.6 0.00 0.00 0.00 73 1012.6
20260501215007 12 335 30.6 41.8 0.00 0.00 0.00 72 1012.5
20260501214523 12 134 29.0 41.8 0.00 0.00 0.00 71 1012.5
20260501214012 12 335 30.6 46.7 0.00 0.00 0.00 71 1012.5
20260501213504 12 335 30.6 46.7 0.00 0.00 0.00 70 1012.5
20260501213012 12 335 27.4 40.2 0.00 0.00 0.00 69 1012.5
20260501212506 12 335 29.0 41.8 0.00 0.00 0.00 69 1012.5
20260501212006 12 335 29.0 45.1 0.00 0.00 0.00 69 1012.5
20260501211527 12 335 30.6 45.1 0.00 0.00 0.00 68 1012.5
20260501211008 12 335 33.8 45.1 0.00 0.00 0.00 67 1012.4
20260501210508 12 335 32.2 48.3 0.00 0.00 0.00 69 1012.4
20260501210026 12 335 33.8 48.3 0.00 0.00 0.00 67 1012.4
20260501205504 12 154 32.2 49.9 0.00 0.00 0.00 68 1012.4
20260501205003 12 335 40.2 49.9 0.00 0.00 0.00 64 1012.5
20260501204516 12 335 35.4 46.7 0.00 0.00 0.00 67 1012.4
20260501204007 12 335 35.4 45.1 0.00 0.00 0.00 66 1012.5
20260501203507 12 335 32.2 43.5 0.00 0.00 0.00 66 1012.5
20260501203025 12 335 29.0 46.7 0.00 0.00 0.00 66 1012.4
20260501202506 13 335 32.2 46.7 0.00 0.00 0.00 65 1012.4
20260501202010 13 335 33.8 41.8 0.00 0.00 0.00 66 1012.4
20260501201529 13 335 30.6 38.6 0.00 0.00 0.00 66 1012.4
20260501201008 13 151 29.0 38.6 0.00 0.00 0.00 68 1012.4
20260501200504 13 335 29.0 35.4 0.00 0.00 0.00 67 1012.3
20260501200024 13 145 27.4 37.0 0.00 0.00 0.00 67 1012.4
20260501195509 13 152 25.7 37.0 0.00 0.00 0.00 66 1012.4
20260501195006 13 335 25.7 35.4 0.00 0.00 0.00 66 1012.4
20260501194528 13 335 20.9 32.2 0.00 0.00 0.00 64 1012.5
20260501194011 13 335 19.3 32.2 0.00 0.00 0.00 65 1012.5
20260501193509 13 335 22.5 32.2 0.00 0.00 0.00 67 1012.5
20260501193022 14 153 24.1 32.2 0.00 0.00 0.00 63 1012.6
20260501192506 15 335 24.1 35.4 0.00 0.00 0.00 61 1012.6
20260501192007 15 335 22.5 35.4 0.00 0.00 0.00 58 1012.7
20260501191525 15 156 14.5 20.9 0.00 0.00 0.00 55 1012.6
20260501191009 15 152 12.9 20.9 0.00 0.00 0.00 56 1012.7
20260501190510 15 162 12.9 22.5 0.00 0.00 0.00 58 1012.8
20260501190028 15 178 14.5 29.0 0.00 0.00 0.00 55 1012.8
20260501185511 15 171 17.7 29.0 0.00 0.00 0.00 54 1012.9
20260501185009 15 179 17.7 27.4 0.00 0.00 0.00 57 1012.9
20260501184517 15 165 16.1 25.7 0.00 0.00 0.00 55 1012.9
20260501184006 15 157 16.1 25.7 0.00 0.00 0.00 55 1013.0
20260501183509 15 159 17.7 25.7 0.00 0.00 0.00 62 1013.0
20260501183026 14 175 19.3 25.7 0.00 0.00 0.00 59 1013.0
20260501182506 14 160 16.1 25.7 0.00 0.00 0.00 60 1013.1
20260501182016 14 162 19.3 25.7 0.00 0.00 0.00 61 1013.1
20260501181529 14 176 16.1 27.4 0.00 0.00 0.00 60 1013.1
20260501181011 14 171 17.7 27.4 0.00 0.00 0.00 60 1013.1
20260501180503 14 167 16.1 27.4 0.00 0.00 0.00 59 1013.1
20260501180032 15 169 17.7 25.7 0.00 0.00 0.00 58 1013.1
20260501175507 14 169 14.5 29.0 0.00 0.00 0.00 60 1013.2
20260501175011 14 165 17.7 29.0 0.00 0.00 0.00 59 1013.2
20260501174528 14 173 16.1 29.0 0.00 0.00 0.00 60 1013.3
20260501174012 14 180 19.3 29.0 0.00 0.00 0.00 60 1013.3
20260501173514 14 165 17.7 30.6 0.00 0.00 0.00 60 1013.3
20260501173029 14 171 16.1 30.6 0.00 0.00 0.00 60 1013.3
20260501172510 13 168 20.9 29.0 0.00 0.00 0.00 60 1013.4
20260501172008 13 182 17.7 29.0 0.00 0.00 0.00 63 1013.4
20260501171525 13 160 19.3 32.2 0.00 0.00 0.00 63 1013.5
20260501171006 13 160 19.3 32.2 0.00 0.00 0.00 62 1013.6
20260501170508 13 165 19.3 30.6 0.00 0.00 0.00 64 1013.6
20260501170027 13 157 19.3 30.6 0.00 0.00 0.00 63 1013.5
20260501165513 13 172 20.9 29.0 0.00 0.00 0.00 62 1013.5
20260501165010 13 163 17.7 29.0 0.00 0.00 0.00 63 1013.6
20260501164541 13 159 24.1 29.0 0.00 0.00 0.00 61 1013.7
20260501164007 13 335 12.9 33.8 0.00 0.00 0.00 60 1013.8
20260501163508 14 335 20.9 33.8 0.00 0.00 0.00 55 1013.9
20260501163026 15 335 20.9 25.7 0.00 0.00 0.00 56 1013.8
20260501162508 15 180 4.8 19.3 0.00 0.00 0.00 49 1014.0
20260501162010 15 298 8.0 19.3 0.00 0.00 0.00 38 1014.0
20260501161529 15 335 11.3 22.5 0.00 0.00 0.00 38 1014.1
20260501161008 15 227 12.9 22.5 0.00 0.00 0.00 38 1014.2
20260501160510 15 335 6.4 16.1 0.00 0.00 0.00 38 1014.2
20260501160027 15 261 9.7 16.1 0.00 0.00 0.00 39 1014.3
20260501155512 15 335 6.4 17.7 0.00 0.00 0.00 42 1014.3
20260501155010 15 222 8.0 17.7 0.00 0.00 0.00 41 1014.4
20260501154506 15 335 9.7 17.7 0.00 0.00 0.00 42 1014.3
20260501154003 15 335 8.0 20.9 0.00 0.00 0.00 41 1014.4
20260501153506 15 231 11.3 20.9 0.00 0.00 0.00 43 1014.4
20260501153018 14 273 11.3 19.3 0.00 0.00 0.00 43 1014.4
20260501152507 14 335 9.7 17.7 0.00 0.00 0.00 44 1014.4
20260501152010 14 335 8.0 16.1 0.00 0.00 0.00 44 1014.5
20260501151523 14 229 8.0 17.7 0.00 0.00 0.00 45 1014.5
20260501151007 13 335 8.0 17.7 0.00 0.00 0.00 46 1014.5
20260501150510 13 230 3.2 16.1 0.00 0.00 0.00 47 1014.5
20260501150007 13 275 6.4 17.7 0.00 0.00 0.00 46 1014.4
20260501145504 13 335 11.3 17.7 0.00 0.00 0.00 46 1014.3
20260501145004 13 281 3.2 16.1 0.00 0.00 0.00 47 1014.2
20260501144515 13 299 6.4 16.1 0.00 0.00 0.00 49 1014.2
20260501144008 13 287 8.0 19.3 0.00 0.00 0.00 49 1014.2
20260501143512 13 278 9.7 19.3 0.00 0.00 0.00 50 1014.2
20260501143028 12 279 8.0 17.7 0.00 0.00 0.00 48 1014.2
20260501142507 12 303 6.4 17.7 0.00 0.00 0.00 49 1014.2
20260501142003 12 296 8.0 17.7 0.00 0.00 0.00 49 1014.2